CW9792 Weather Reports


Display with metric or nautical units.
time (UTC)temp
F
wind
direction
speed
MPH
gust
MPH
rain 1hr
in
rain 24hr
in
rain mn
in
humidity
%
barometer
mb
20260901205505 95 286 0.0 0.0 0.00 0.00 0.00 38 1015.9
20260901205001 95 263 0.0 0.0 0.00 0.00 0.00 37 1016.0
20260901204501 95 215 0.0 0.0 0.00 0.00 0.00 37 1016.1
20260901204101 95 227 0.0 1.0 0.00 0.00 0.00 36 1016.1
20260901203601 94 293 0.0 1.0 0.00 0.00 0.00 37 1016.2
20260901203109 94 335 0.0 0.0 0.00 0.00 0.00 37 1016.1
20260901202558 94 289 0.0 0.0 0.00 0.00 0.00 37 1016.2
20260901202058 93 220 0.0 0.0 0.00 0.00 0.00 37 1016.3
20260901201558 94 269 0.0 0.0 0.00 0.00 0.00 37 1016.4
20260901201057 94 255 0.0 1.0 0.00 0.00 0.00 37 1016.4
20260901200556 94 254 0.0 1.0 0.00 0.00 0.00 37 1016.5
20260901200057 94 269 0.0 0.0 0.00 0.00 0.00 38 1016.4
20260901195558 93 249 0.0 0.0 0.00 0.00 0.00 37 1016.5
20260901195056 94 283 0.0 0.0 0.00 0.00 0.00 36 1016.7
20260901194555 95 197 0.0 0.0 0.00 0.00 0.00 37 1016.7
20260901194054 95 197 0.0 1.0 0.00 0.00 0.00 35 1016.6
20260901193553 94 192 0.0 1.0 0.00 0.00 0.00 37 1016.7
20260901193106 93 290 0.0 0.0 0.00 0.00 0.00 38 1016.8
20260901192553 93 242 0.0 0.0 0.00 0.00 0.00 38 1016.8
20260901192058 93 213 0.0 1.0 0.00 0.00 0.00 38 1016.9
20260901191552 93 250 0.0 1.0 0.00 0.00 0.00 39 1016.9
20260901191056 93 289 0.0 0.0 0.00 0.00 0.00 40 1017.0
20260901190552 93 274 0.0 0.0 0.00 0.00 0.00 39 1017.0
20260901190054 92 269 0.0 0.0 0.00 0.00 0.00 39 1017.1
20260901185552 92 241 0.0 0.0 0.00 0.00 0.00 38 1017.1
20260901185051 93 288 0.0 0.0 0.00 0.00 0.00 36 1017.2
20260901184551 93 279 0.0 0.0 0.00 0.00 0.00 37 1017.3
20260901184050 94 281 0.0 0.0 0.00 0.00 0.00 39 1017.3
20260901183551 93 281 0.0 0.0 0.00 0.00 0.00 38 1017.4
20260901183058 92 293 0.0 0.0 0.00 0.00 0.00 40 1017.4
20260901182553 93 265 0.0 1.0 0.00 0.00 0.00 40 1017.5
20260901182049 93 233 0.0 1.0 0.00 0.00 0.00 39 1017.5
20260901181550 91 248 0.0 0.0 0.00 0.00 0.00 40 1017.5
20260901181051 91 273 0.0 0.0 0.00 0.00 0.00 40 1017.6
20260901180547 92 279 0.0 0.0 0.00 0.00 0.00 41 1017.6
20260901180048 91 281 0.0 0.0 0.00 0.00 0.00 41 1017.6
20260901175547 91 267 0.0 0.0 0.00 0.00 0.00 41 1017.7
20260901175047 92 279 0.0 0.0 0.00 0.00 0.00 41 1017.7
20260901174547 91 232 0.0 0.0 0.00 0.00 0.00 41 1017.7
20260901174047 92 248 0.0 1.0 0.00 0.00 0.00 41 1017.8
20260901173547 91 288 0.0 1.0 0.00 0.00 0.00 41 1017.9
20260901173055 91 270 0.0 0.0 0.00 0.00 0.00 40 1017.8
20260901172546 92 247 0.0 0.0 0.00 0.00 0.00 42 1017.8
20260901172045 91 276 0.0 0.0 0.00 0.00 0.00 42 1017.9
20260901171545 91 270 0.0 0.0 0.00 0.00 0.00 42 1018.0
20260901171043 91 240 0.0 0.0 0.00 0.00 0.00 44 1017.9
20260901170544 91 243 0.0 0.0 0.00 0.00 0.00 44 1017.9
20260901170057 91 250 0.0 0.0 0.00 0.00 0.00 46 1017.9
20260901165543 91 234 0.0 0.0 0.00 0.00 0.00 44 1018.1
20260901165042 91 296 0.0 0.0 0.00 0.00 0.00 45 1018.1
20260901164542 91 275 0.0 0.0 0.00 0.00 0.00 45 1018.2
20260901164041 90 248 0.0 0.0 0.00 0.00 0.00 46 1018.2
20260901163541 90 238 0.0 0.0 0.00 0.00 0.00 46 1018.3
20260901163041 91 243 0.0 0.0 0.00 0.00 0.00 46 1018.3
20260901162541 90 273 0.0 0.0 0.00 0.00 0.00 47 1018.3
20260901162038 90 241 0.0 0.0 0.00 0.00 0.00 48 1018.4
20260901161539 89 294 0.0 0.0 0.00 0.00 0.00 48 1018.4
20260901161038 89 262 0.0 0.0 0.00 0.00 0.00 48 1018.4
20260901160537 89 243 0.0 0.0 0.00 0.00 0.00 48 1018.5
20260901160038 89 265 0.0 0.0 0.00 0.00 0.00 47 1018.4
20260901155537 89 254 0.0 0.0 0.00 0.00 0.00 49 1018.4
20260901155038 88 246 0.0 1.0 0.00 0.00 0.00 48 1018.5
20260901154538 89 236 0.0 1.0 0.00 0.00 0.00 49 1018.6
20260901154037 88 239 0.0 0.0 0.00 0.00 0.00 49 1018.6
20260901153536 88 188 0.0 0.0 0.00 0.00 0.00 50 1018.6
20260901153036 88 242 0.0 0.0 0.00 0.00 0.00 51 1018.6
20260901152531 88 234 0.0 0.0 0.00 0.00 0.00 51 1018.5
20260901152030 87 258 0.0 0.0 0.00 0.00 0.00 52 1018.5
20260901151530 87 252 0.0 0.0 0.00 0.00 0.00 51 1018.5
20260901151030 87 257 0.0 1.0 0.00 0.00 0.00 52 1018.5
20260901150528 86 210 0.0 1.0 0.00 0.00 0.00 53 1018.5
20260901150031 86 226 0.0 0.0 0.00 0.00 0.00 53 1018.6
20260901145527 86 226 0.0 0.0 0.00 0.00 0.00 53 1018.7
20260901145026 85 211 0.0 0.0 0.00 0.00 0.00 53 1018.8
20260901144526 85 210 0.0 0.0 0.00 0.00 0.00 53 1018.8
20260901144026 85 219 0.0 0.0 0.00 0.00 0.00 53 1018.7
20260901143525 85 234 0.0 0.0 0.00 0.00 0.00 54 1018.7
20260901143024 84 244 0.0 0.0 0.00 0.00 0.00 54 1018.8
20260901142522 84 248 0.0 0.0 0.00 0.00 0.00 54 1018.7
20260901142021 84 247 0.0 0.0 0.00 0.00 0.00 55 1018.8
20260901141522 84 224 0.0 0.0 0.00 0.00 0.00 55 1018.9
20260901141025 84 212 0.0 0.0 0.00 0.00 0.00 56 1018.9
20260901140519 83 238 0.0 0.0 0.00 0.00 0.00 55 1018.9
20260901140022 83 252 0.0 0.0 0.00 0.00 0.00 56 1018.9
20260901135518 83 255 0.0 0.0 0.00 0.00 0.00 56 1018.8
20260901135015 82 214 0.0 0.0 0.00 0.00 0.00 56 1018.7
20260901134517 82 219 0.0 0.0 0.00 0.00 0.00 57 1018.8
20260901134019 81 250 0.0 0.0 0.00 0.00 0.00 58 1018.8
20260901133511 80 191 0.0 0.0 0.00 0.00 0.00 58 1018.8
20260901133011 80 190 0.0 0.0 0.00 0.00 0.00 58 1018.8
20260901132510 79 194 0.0 0.0 0.00 0.00 0.00 59 1018.9
20260901132009 78 199 0.0 0.0 0.00 0.00 0.00 60 1018.8
20260901131507 78 207 0.0 0.0 0.00 0.00 0.00 60 1018.8
20260901131005 77 199 0.0 0.0 0.00 0.00 0.00 60 1018.8
20260901130504 76 203 0.0 0.0 0.00 0.00 0.00 60 1018.8
20260901130002 76 208 0.0 0.0 0.00 0.00 0.00 62 1018.8
20260901125503 75 205 0.0 0.0 0.00 0.00 0.00 62 1018.8
20260901125002 74 205 0.0 0.0 0.00 0.00 0.00 62 1018.8
20260901124602 74 205 0.0 0.0 0.00 0.00 0.00 63 1018.7
20260901124502 74 205 0.0 0.0 0.00 0.00 0.00 64 1018.7
20260901124100 73 205 0.0 0.0 0.00 0.00 0.00 65 1018.8
20260901124001 73 205 0.0 0.0 0.00 0.00 0.00 65 1018.7
20260901123600 73 205 0.0 0.0 0.00 0.00 0.00 65 1018.7
20260901123100 72 215 0.0 0.0 0.00 0.00 0.00 66 1018.7
20260901122601 72 215 0.0 0.0 0.00 0.00 0.00 67 1018.7
20260901122059 71 215 0.0 0.0 0.00 0.00 0.00 68 1018.6
20260901121558 71 215 0.0 0.0 0.00 0.00 0.00 68 1018.6
20260901121058 70 215 0.0 0.0 0.00 0.00 0.00 68 1018.5
20260901120602 70 215 0.0 0.0 0.00 0.00 0.00 68 1018.5
20260901120059 70 216 0.0 0.0 0.00 0.00 0.00 68 1018.5
20260901115557 69 216 0.0 0.0 0.00 0.00 0.00 67 1018.5
20260901115056 69 219 0.0 0.0 0.00 0.00 0.00 67 1018.3
20260901114556 69 221 0.0 0.0 0.00 0.00 0.00 67 1018.3
20260901114055 69 222 0.0 0.0 0.00 0.00 0.00 67 1018.2
20260901113554 69 223 0.0 0.0 0.00 0.00 0.00 67 1018.2
20260901113054 69 185 0.0 0.0 0.00 0.00 0.00 67 1018.2
20260901112553 69 185 0.0 0.0 0.00 0.00 0.00 67 1018.1
20260901112052 69 185 0.0 0.0 0.00 0.00 0.00 66 1018.0
20260901111553 69 185 0.0 0.0 0.00 0.00 0.00 67 1017.9
20260901111051 69 185 0.0 0.0 0.00 0.00 0.00 67 1017.9
20260901110550 69 185 0.0 0.0 0.00 0.00 0.00 67 1017.8
20260901110052 69 185 0.0 0.0 0.00 0.00 0.00 66 1017.8
20260901105550 69 185 0.0 0.0 0.00 0.00 0.00 66 1017.7
20260901105049 69 185 0.0 0.0 0.00 0.00 0.00 66 1017.6
20260901104554 69 185 0.0 0.0 0.00 0.00 0.00 66 1017.6
20260901104048 69 185 0.0 0.0 0.00 0.00 0.00 66 1017.5
20260901103548 69 185 0.0 0.0 0.00 0.00 0.00 66 1017.4
20260901103047 69 185 0.0 0.0 0.00 0.00 0.00 66 1017.4
20260901102547 69 196 0.0 0.0 0.00 0.00 0.00 66 1017.4
20260901102048 69 200 0.0 0.0 0.00 0.00 0.00 66 1017.4
20260901101546 69 200 0.0 0.0 0.00 0.00 0.00 66 1017.4
20260901101046 69 200 0.0 0.0 0.00 0.00 0.00 66 1017.3
20260901100545 69 200 0.0 0.0 0.00 0.00 0.00 66 1017.3
20260901100046 69 200 0.0 0.0 0.00 0.00 0.00 66 1017.2
20260901095544 69 200 0.0 0.0 0.00 0.00 0.00 66 1017.2
20260901095045 69 200 0.0 0.0 0.00 0.00 0.00 66 1017.1
20260901094549 69 200 0.0 0.0 0.00 0.00 0.00 66 1017.2
20260901094044 69 200 0.0 0.0 0.00 0.00 0.00 66 1017.1
20260901093545 69 200 0.0 0.0 0.00 0.00 0.00 66 1017.1
20260901093044 69 200 0.0 0.0 0.00 0.00 0.00 66 1017.0
20260901092544 70 201 0.0 0.0 0.00 0.00 0.00 66 1016.9
20260901092043 70 201 0.0 0.0 0.00 0.00 0.00 66 1016.8
20260901091543 70 201 0.0 0.0 0.00 0.00 0.00 66 1016.7
20260901091042 70 201 0.0 0.0 0.00 0.00 0.00 65 1016.7
20260901090543 70 201 0.0 0.0 0.00 0.00 0.00 65 1016.7
20260901090041 70 201 0.0 0.0 0.00 0.00 0.00 65 1016.7
20260901085540 70 201 0.0 0.0 0.00 0.00 0.00 65 1016.7
20260901085040 70 201 0.0 0.0 0.00 0.00 0.00 65 1016.6
20260901084541 71 201 0.0 0.0 0.00 0.00 0.00 65 1016.6
20260901084040 71 201 0.0 0.0 0.00 0.00 0.00 65 1016.6
20260901083542 71 201 0.0 0.0 0.00 0.00 0.00 65 1016.6
20260901083040 71 201 0.0 0.0 0.00 0.00 0.00 65 1016.5
20260901082538 71 197 0.0 0.0 0.00 0.00 0.00 65 1016.6
20260901082042 71 188 0.0 0.0 0.00 0.00 0.00 65 1016.6
20260901081538 71 186 0.0 0.0 0.00 0.00 0.00 65 1016.7
20260901081037 71 186 0.0 0.0 0.00 0.00 0.00 65 1016.6
20260901080538 71 186 0.0 0.0 0.00 0.00 0.00 65 1016.7
20260901080038 71 186 0.0 0.0 0.00 0.00 0.00 65 1016.7
20260901075540 71 186 0.0 0.0 0.00 0.00 0.00 65 1016.7
20260901075038 71 185 0.0 0.0 0.00 0.00 0.00 65 1016.7
20260901074537 71 185 0.0 0.0 0.00 0.00 0.00 65 1016.7
20260901074036 71 188 0.0 0.0 0.00 0.00 0.00 65 1016.6
20260901073536 71 188 0.0 0.0 0.00 0.00 0.00 65 1016.6
20260901073037 71 188 0.0 0.0 0.00 0.00 0.00 65 1016.6
20260901072536 71 188 0.0 0.0 0.00 0.00 0.00 65 1016.7
20260901072034 71 188 0.0 0.0 0.00 0.00 0.00 64 1016.7
20260901071532 71 188 0.0 0.0 0.00 0.00 0.00 65 1016.8
20260901071034 71 188 0.0 0.0 0.00 0.00 0.00 65 1016.8
20260901070531 71 188 0.0 0.0 0.00 0.00 0.00 64 1016.9
20260901070030 72 188 0.0 0.0 0.00 0.00 0.00 64 1016.9
20260901065530 72 188 0.0 0.0 0.00 0.00 0.00 64 1017.0
20260901065030 72 188 0.0 0.0 0.00 0.00 0.00 64 1016.9
20260901064532 72 188 0.0 0.0 0.00 0.00 0.00 64 1016.9
20260901064029 72 188 0.0 0.0 0.00 0.00 0.00 63 1017.0
20260901063527 72 188 0.0 0.0 0.00 0.00 0.00 63 1017.1
20260901063030 72 188 0.0 0.0 0.00 0.00 0.00 63 1017.0
20260901062526 73 188 0.0 0.0 0.00 0.00 0.00 63 1017.0
20260901062026 73 188 0.0 0.0 0.00 0.00 0.00 63 1017.0
20260901061525 73 186 0.0 0.0 0.00 0.00 0.00 63 1017.1
20260901061025 73 186 0.0 0.0 0.00 0.00 0.00 63 1017.1
20260901060524 73 186 0.0 0.0 0.00 0.00 0.00 63 1017.1
20260901060024 73 186 0.0 0.0 0.00 0.00 0.00 62 1017.2
20260901055525 73 193 0.0 0.0 0.00 0.00 0.00 63 1017.1
20260901055024 73 194 0.0 0.0 0.00 0.00 0.00 63 1017.1
20260901054523 73 193 0.0 0.0 0.00 0.00 0.00 63 1017.2
20260901054024 73 193 0.0 0.0 0.00 0.00 0.00 63 1017.2
20260901053524 73 184 0.0 0.0 0.00 0.00 0.00 62 1017.3
20260901053022 73 184 0.0 0.0 0.00 0.00 0.00 62 1017.3
20260901052520 73 184 0.0 0.0 0.00 0.00 0.00 62 1017.3
20260901052019 74 184 0.0 0.0 0.00 0.00 0.00 62 1017.3
20260901051519 74 184 0.0 0.0 0.00 0.00 0.00 61 1017.3
20260901051019 74 184 0.0 0.0 0.00 0.00 0.00 61 1017.2
20260901050519 75 184 0.0 0.0 0.00 0.00 0.00 61 1017.2
20260901050019 75 184 0.0 0.0 0.00 0.00 0.00 61 1017.2
20260901045518 75 183 0.0 0.0 0.00 0.00 0.00 61 1017.2
20260901045018 75 178 0.0 0.0 0.00 0.00 0.00 61 1017.1
20260901044518 75 183 0.0 0.0 0.00 0.00 0.00 61 1017.1
20260901044017 75 200 0.0 0.0 0.00 0.00 0.00 62 1017.1
20260901043517 74 202 0.0 0.0 0.00 0.00 0.00 62 1017.2
20260901043016 74 202 0.0 0.0 0.00 0.00 0.00 62 1017.2
20260901042517 74 202 0.0 0.0 0.00 0.00 0.00 63 1017.2
20260901042015 74 202 0.0 0.0 0.00 0.00 0.00 63 1017.1
20260901041515 74 202 0.0 0.0 0.00 0.00 0.00 63 1017.1
20260901041014 74 202 0.0 0.0 0.00 0.00 0.00 63 1017.1
20260901040514 74 202 0.0 0.0 0.00 0.00 0.00 63 1017.1
20260901040013 74 202 0.0 0.0 0.00 0.00 0.00 63 1017.1
20260901035513 74 202 0.0 0.0 0.00 0.00 0.00 63 1017.0
20260901035011 74 202 0.0 0.0 0.00 0.00 0.00 63 1017.0
20260901034521 74 202 0.0 0.0 0.00 0.00 0.00 63 1017.0
20260901034011 75 202 0.0 0.0 0.00 0.00 0.00 63 1017.0
20260901033511 75 202 0.0 0.0 0.00 0.00 0.00 63 1017.0
20260901033011 75 202 0.0 0.0 0.00 0.00 0.00 63 1017.0
20260901032511 75 202 0.0 0.0 0.00 0.00 0.00 63 1016.9
20260901032011 75 202 0.0 0.0 0.00 0.00 0.00 63 1016.9
20260901031510 75 202 0.0 0.0 0.00 0.00 0.00 63 1016.8
20260901031010 75 202 0.0 0.0 0.00 0.00 0.00 63 1016.8
20260901030510 75 202 0.0 0.0 0.00 0.00 0.00 63 1016.8
20260901030010 75 202 0.0 0.0 0.00 0.00 0.00 63 1016.8
20260901025511 76 202 0.0 0.0 0.00 0.00 0.00 63 1016.8
20260901025012 76 202 0.0 0.0 0.00 0.00 0.00 62 1016.8
20260901024510 76 202 0.0 0.0 0.00 0.00 0.00 62 1016.8
20260901024009 76 202 0.0 0.0 0.00 0.00 0.00 62 1016.8
20260901023509 76 202 0.0 0.0 0.00 0.00 0.00 62 1016.8
20260901023014 76 203 0.0 0.0 0.00 0.00 0.00 62 1016.7
20260901022510 76 204 0.0 0.0 0.00 0.00 0.00 62 1016.7
20260901022008 76 203 0.0 0.0 0.00 0.00 0.00 63 1016.7
20260901021511 76 203 0.0 0.0 0.00 0.00 0.00 63 1016.7
20260901021009 76 205 0.0 0.0 0.00 0.00 0.00 63 1016.7
20260901020509 76 205 0.0 0.0 0.00 0.00 0.00 63 1016.7
20260901020008 76 205 0.0 0.0 0.00 0.00 0.00 63 1016.7
20260901015509 76 205 0.0 0.0 0.00 0.00 0.00 63 1016.7
20260901015007 77 205 0.0 0.0 0.00 0.00 0.00 63 1016.7
20260901014507 77 205 0.0 0.0 0.00 0.00 0.00 63 1016.7
20260901014010 77 205 0.0 0.0 0.00 0.00 0.00 62 1016.6
20260901013509 78 205 0.0 0.0 0.00 0.00 0.00 62 1016.6
20260901013007 78 205 0.0 0.0 0.00 0.00 0.00 62 1016.6
20260901012506 78 205 0.0 0.0 0.00 0.00 0.00 62 1016.4
20260901012006 78 205 0.0 0.0 0.00 0.00 0.00 61 1016.4
20260901011517 79 205 0.0 0.0 0.00 0.00 0.00 60 1016.4
20260901011006 80 214 0.0 0.0 0.00 0.00 0.00 60 1016.3
20260901010506 81 221 0.0 0.0 0.00 0.00 0.00 58 1016.2
20260901010006 81 221 0.0 0.0 0.00 0.00 0.00 58 1016.2
20260901005506 81 221 0.0 0.0 0.00 0.00 0.00 57 1016.1
20260901005008 82 221 0.0 0.0 0.00 0.00 0.00 57 1016.1
20260901004506 83 221 0.0 0.0 0.00 0.00 0.00 57 1016.0
20260901004005 83 221 0.0 0.0 0.00 0.00 0.00 56 1016.0
20260901003505 84 221 0.0 0.0 0.00 0.00 0.00 55 1015.9
20260901003005 84 221 0.0 0.0 0.00 0.00 0.00 54 1016.0
20260901002505 85 221 0.0 0.0 0.00 0.00 0.00 53 1015.9
20260901002005 86 221 0.0 0.0 0.00 0.00 0.00 51 1015.8
20260901001504 87 221 0.0 0.0 0.00 0.00 0.00 50 1015.9
20260901001005 87 221 0.0 0.0 0.00 0.00 0.00 51 1015.9
20260901000503 87 221 0.0 0.0 0.00 0.00 0.00 51 1015.8
20260901000004 88 221 0.0 0.0 0.00 0.00 0.00 50 1015.8
20260831235503 89 221 0.0 0.0 0.00 0.00 0.00 48 1015.7
20260831235004 89 221 0.0 0.0 0.00 0.00 0.00 47 1015.7
20260831234503 90 221 0.0 0.0 0.00 0.00 0.00 47 1015.7
20260831234003 90 221 0.0 0.0 0.00 0.00 0.00 46 1015.8
20260831233501 90 221 0.0 0.0 0.00 0.00 0.00 45 1015.8
20260831233002 91 221 0.0 0.0 0.00 0.00 0.00 42 1015.8
20260831232501 91 221 0.0 0.0 0.00 0.00 0.00 42 1015.8
20260831232102 91 221 0.0 0.0 0.00 0.00 0.00 42 1016.0
20260831231601 91 221 0.0 0.0 0.00 0.00 0.00 41 1015.9
20260831231100 91 221 0.0 0.0 0.00 0.00 0.00 39 1016.0
20260831230600 92 221 0.0 0.0 0.00 0.00 0.00 39 1016.0
20260831230112 91 221 0.0 0.0 0.00 0.00 0.00 39 1016.1
20260831225602 92 218 0.0 0.0 0.00 0.00 0.00 39 1016.1
20260831225059 92 212 0.0 0.0 0.00 0.00 0.00 38 1016.1
20260831224558 92 212 0.0 0.0 0.00 0.00 0.00 39 1016.1
20260831224058 92 227 0.0 0.0 0.00 0.00 0.00 37 1016.1
20260831223600 93 200 0.0 0.0 0.00 0.00 0.00 37 1016.2
20260831223057 93 190 0.0 0.0 0.00 0.00 0.00 37 1016.3
20260831222556 93 173 0.0 0.0 0.00 0.00 0.00 36 1016.4
20260831222055 93 202 0.0 0.0 0.00 0.00 0.00 37 1016.4
20260831221602 92 201 0.0 0.0 0.00 0.00 0.00 37 1016.5
20260831221054 92 200 0.0 0.0 0.00 0.00 0.00 37 1016.6
20260831220553 92 194 0.0 0.0 0.00 0.00 0.00 37 1016.6
20260831215556 92 210 0.0 0.0 0.00 0.00 0.00 38 1016.8
20260831215053 92 219 0.0 0.0 0.00 0.00 0.00 36 1016.7
20260831214553 93 186 0.0 0.0 0.00 0.00 0.00 38 1016.7
20260831214052 93 188 0.0 0.0 0.00 0.00 0.00 38 1016.8
20260831213551 93 213 0.0 0.0 0.00 0.00 0.00 37 1016.8
20260831213056 93 192 0.0 0.0 0.00 0.00 0.00 38 1016.8
20260831212551 93 168 0.0 0.0 0.00 0.00 0.00 38 1016.9
20260831212054 93 196 0.0 0.0 0.00 0.00 0.00 37 1016.9
20260831211601 93 188 0.0 0.0 0.00 0.00 0.00 37 1016.9
20260831211051 93 203 0.0 0.0 0.00 0.00 0.00 37 1016.9
20260831210550 93 190 0.0 0.0 0.00 0.00 0.00 37 1017.0
20260831210049 93 199 0.0 1.0 0.00 0.00 0.00 37 1017.0
20260831205550 94 189 0.0 1.0 0.00 0.00 0.00 36 1017.0